Location: Hopville
(44.8032°N, 123.1329°W)
Time: 03:59:03
(UTC+00:00)

USA 307 - Pass Details

Date: 24 January 2021
Orbit: 565 x 580 km, 54.0° (Epoch: 25 February)

Event Time Altitude Azimuth Distance (km) Brightness Sun altitude
Exits shadow 14:13:09 15° 233° (SW) 1,553 4.7 -15.3°
Maximum altitude 14:16:36 89° 146° (SE) 570 2.8 -14.7°
Drops below altitude 10° 14:20:51 10° 55° (NE) 1,865 6.1 -14.0°
Sets 14:23:06 0° 55° (NE) 2,765 7.1 -13.6°
